OK,87,47,1037,87,2014-10-01T01:40:00,1,28072807,201961
OK,87,47,1037,87,2014-10-01T01:45:00,0,28073254,201961
OK,87,47,1037,87,2014-10-01T01:50:00,0,28073702,201961
OK,87,47,1037,87,2014-10-01T01:55:00,0,28074020,201961
OK,87,47,1037,87,2014-10-01T02:05:00,0,28074909,201961
OK,87,47,1037,87,2014-10-01T02:10:00,0,28075358,201961
OK,87,47,1037,87,2014-10-01T02:15:00,0,28075807,201961
OK,87,47,1037,87,2014-10-01T02:20:00,0,28076190,201961
OK,87,47,1037,87,2014-10-01T02:25:00,0,28076639,201961
OK,87,47,1037,87,2014-10-01T02:30:00,0,28077088,201961
OK,87,47,1037,87,2014-10-01T02:35:00,0,28077537,201961
OK,87,47,1037,87,2014-10-01T02:40:00,0,28077940,201961
OK,87,47,1037,87,2014-10-01T02:45:00,0,28078389,201961
OK,87,47,1037,87,2014-10-01T02:50:00,0,28078834,201961
OK,87,47,1037,87,2014-10-01T02:55:00,0,28079282,201961
OK,87,47,1037,87,2014-10-01T03:00:00,0,28079725,201961
OK,87,47,1037,87,2014-10-01T03:05:00,0,28080174,201961
OK,87,47,1037,87,2014-10-01T03:10:00,0,28080508,201961
OK,87,47,1037,87,2014-10-01T03:15:00,0,28080957,201961
OK,87,47,1037,87,2014-10-01T03:20:00,0,28081406,201961
OK,87,47,1037,87,2014-10-01T03:25:00,0,28081853,201961
OK,67,61,1037,67,2014-10-01T03:30:00,1,28082302,201961
OK,67,61,1037,67,2014-10-01T03:35:00,1,28082735,201961
OK,67,61,1037,67,2014-10-01T03:40:00,0,28083167,201961
OK,67,61,1037,67,2014-10-01T03:45:00,0,28083616,201961
OK,67,61,1037,67,2014-10-01T03:50:00,0,28084065,201961
OK,67,61,1037,67,2014-10-01T03:55:00,0,28084506,201961
OK,67,61,1037,67,2014-10-01T04:00:00,0,28084931,201961
OK,67,61,1037,67,2014-10-01T04:05:00,0,28085380,201961
OK,72,56,1037,72,2014-10-01T04:10:00,1,28085825,201961
OK,72,56,1037,72,2014-10-01T04:15:00,1,28086274,201961
OK,72,56,1037,72,2014-10-01T04:20:00,0,28086716,201961
OK,72,56,1037,72,2014-10-01T04:25:00,0,28087165,201961
OK,72,56,1037,72,2014-10-01T04:30:00,0,28087610,201961
OK,72,56,1037,72,2014-10-01T04:35:00,0,28088059,201961
OK,72,56,1037,72,2014-10-01T04:40:00,0,28088483,201961
OK,72,56,1037,72,2014-10-01T04:45:00,0,28088932,201961
OK,72,56,1037,72,2014-10-01T04:50:00,0,28089362,201961
OK,103,39,1037,103,2014-10-01T05:00:00,2,28090260,201961
OK,86,47,1037,86,2014-10-01T05:05:00,2,28090604,201961
OK,73,56,1037,73,2014-10-01T05:10:00,0,28091053,201961
OK,73,56,1037,73,2014-10-01T05:15:00,0,28091502,201961
OK,74,55,1037,74,2014-10-01T05:20:00,1,28091919,201961
OK,74,55,1037,74,2014-10-01T05:25:00,1,28092368,201961
OK,74,55,1037,74,2014-10-01T05:30:00,0,28092812,201961
OK,190,21,1037,190,2014-10-01T05:35:00,2,28093253,201961
OK,141,29,1037,141,2014-10-01T05:40:00,6,28093684,201961
OK,107,38,1037,107,2014-10-01T05:45:00,5,28094133,201961
OK,176,23,1037,176,2014-10-01T05:50:00,1,28094544,201961
OK,176,23,1037,176,2014-10-01T05:55:00,1,28094989,201961
OK,139,29,1037,139,2014-10-01T06:00:00,1,28095436,201961
OK,139,29,1037,139,2014-10-01T06:05:00,1,28095885,201961
OK,135,30,1037,135,2014-10-01T06:10:00,3,28096298,201961
OK,139,29,1037,139,2014-10-01T06:15:00,4,28096747,201961
OK,144,28,1037,144,2014-10-01T06:20:00,1,28097181,201961
OK,100,41,1037,100,2014-10-01T06:25:00,1,28097630,201961
OK,100,41,1037,100,2014-10-01T06:30:00,1,28098079,201961
OK,100,41,1037,100,2014-10-01T06:35:00,0,28098516,201961
OK,100,41,1037,100,2014-10-01T06:40:00,0,28098960,201961
OK,100,41,1037,100,2014-10-01T06:45:00,0,28099408,201961
OK,100,41,1037,100,2014-10-01T06:50:00,0,28099751,201961
OK,368,11,1037,368,2014-10-01T06:55:00,1,28100200,201961
OK,118,34,1037,118,2014-10-01T07:00:00,1,28100507,201961
OK,110,37,1037,110,2014-10-01T07:10:00,1,28101327,201961
OK,110,37,1037,110,2014-10-01T07:20:00,0,28102212,201961
OK,110,37,1037,110,2014-10-01T07:25:00,0,28102661,201961
OK,110,37,1037,110,2014-10-01T07:30:00,0,28103089,201961
OK,160,25,1037,160,2014-10-01T07:35:00,2,28103535,201961
OK,120,34,1037,120,2014-10-01T07:40:00,4,28103980,201961
OK,108,37,1037,108,2014-10-01T07:45:00,3,28104425,201961
OK,114,35,1037,114,2014-10-01T07:50:00,3,28104866,201961
OK,97,42,1037,97,2014-10-01T07:55:00,2,28105311,201961
OK,81,50,1037,81,2014-10-01T08:00:00,1,28105751,201961
OK,91,45,1037,91,2014-10-01T08:05:00,1,28106200,201961
OK,91,45,1037,91,2014-10-01T08:10:00,1,28106637,201961
OK,91,45,1037,91,2014-10-01T08:15:00,0,28107043,201961
OK,92,44,1037,92,2014-10-01T08:20:00,2,28107475,201961
OK,112,36,1037,112,2014-10-01T08:25:00,3,28107924,201961
OK,122,33,1037,122,2014-10-01T08:30:00,1,28108363,201961
OK,128,32,1037,128,2014-10-01T08:35:00,1,28108812,201961
OK,128,32,1037,128,2014-10-01T08:40:00,1,28109240,201961
OK,128,32,1037,128,2014-10-01T08:45:00,0,28109689,201961
OK,106,38,1037,106,2014-10-01T08:50:00,1,28110032,201961
OK,96,42,1037,96,2014-10-01T09:00:00,5,28110904,201961
OK,90,45,1037,90,2014-10-01T09:05:00,4,28111353,201961
OK,79,51,1037,79,2014-10-01T09:10:00,4,28111782,201961
OK,79,51,1037,79,2014-10-01T09:15:00,2,28112231,201961
OK,79,51,1037,79,2014-10-01T09:20:00,0,28112572,201961
OK,81,50,1037,81,2014-10-01T09:30:00,1,28113445,201961
OK,81,50,1037,81,2014-10-01T09:35:00,0,28113894,201961
OK,81,50,1037,81,2014-10-01T09:40:00,0,28114326,201961
OK,81,50,1037,81,2014-10-01T09:45:00,0,28114775,201961
OK,122,33,1037,122,2014-10-01T09:50:00,3,28115129,201961
OK,81,50,1037,81,2014-10-01T10:00:00,1,28115990,201961
OK,81,50,1037,81,2014-10-01T10:05:00,0,28116439,201961
OK,120,34,1037,120,2014-10-01T10:10:00,2,28116847,201961
OK,120,34,1037,120,2014-10-01T10:15:00,2,28117296,201961
OK,132,31,1037,132,2014-10-01T10:20:00,0,28117721,201961
OK,132,31,1037,132,2014-10-01T10:25:00,0,28118170,201961
OK,132,31,1037,132,2014-10-01T10:30:00,0,28118615,201961
OK,132,31,1037,132,2014-10-01T10:35:00,0,28119062,201961
OK,132,31,1037,132,2014-10-01T10:40:00,0,28119506,201961
OK,102,40,1037,102,2014-10-01T10:45:00,1,28119954,201961
OK,95,43,1037,95,2014-10-01T10:50:00,2,28120402,201961
OK,104,39,1037,104,2014-10-01T10:55:00,2,28120851,201961
OK,120,34,1037,120,2014-10-01T11:00:00,1,28121234,201961
OK,120,34,1037,120,2014-10-01T11:05:00,0,28121683,201961
OK,116,35,1037,116,2014-10-01T11:10:00,1,28122121,201961
OK,98,41,1037,98,2014-10-01T11:15:00,2,28122570,201961
OK,123,33,1037,123,2014-10-01T11:20:00,3,28123011,201961
OK,118,34,1037,118,2014-10-01T11:25:00,4,28123460,201961
OK,106,38,1037,106,2014-10-01T11:30:00,2,28123892,201961
OK,113,36,1037,113,2014-10-01T11:35:00,0,28124341,201961
OK,113,36,1037,113,2014-10-01T11:40:00,0,28124743,201961
OK,113,36,1037,113,2014-10-01T11:45:00,0,28125192,201961
OK,111,36,1037,111,2014-10-01T11:50:00,2,28125621,201961
OK,111,36,1037,111,2014-10-01T11:55:00,2,28126070,201961
OK,109,37,1037,109,2014-10-01T12:00:00,2,28126422,201961
OK,113,36,1037,113,2014-10-01T12:10:00,6,28127320,201961
OK,141,29,1037,141,2014-10-01T12:15:00,4,28127769,201961
OK,110,37,1037,110,2014-10-01T12:20:00,3,28128197,201961
OK,94,43,1037,94,2014-10-01T12:25:00,3,28128646,201961
OK,86,47,1037,86,2014-10-01T12:30:00,1,28129081,201961
OK,86,47,1037,86,2014-10-01T12:35:00,0,28129530,201961
OK,86,47,1037,86,2014-10-01T12:40:00,0,28129964,201961
OK,86,47,1037,86,2014-10-01T12:45:00,0,28130413,201961
OK,86,47,1037,86,2014-10-01T12:50:00,0,28130841,201961
OK,132,31,1037,132,2014-10-01T12:55:00,1,28131290,201961
OK,132,31,1037,132,2014-10-01T13:00:00,3,28131727,201961
OK,128,32,1037,128,2014-10-01T13:05:00,6,28132176,201961
OK,126,32,1037,126,2014-10-01T13:10:00,4,28132614,201961
OK,110,37,1037,110,2014-10-01T13:15:00,2,28133061,201961
OK,110,37,1037,110,2014-10-01T13:20:00,2,28133499,201961
OK,161,25,1037,161,2014-10-01T13:25:00,0,28133948,201961
OK,108,37,1037,108,2014-10-01T13:30:00,2,28134387,201961
OK,108,37,1037,108,2014-10-01T13:35:00,2,28134836,201961
OK,114,35,1037,114,2014-10-01T13:40:00,2,28135255,201961
OK,114,35,1037,114,2014-10-01T13:45:00,0,28135704,201961
OK,95,43,1037,95,2014-10-01T13:50:00,1,28136141,201961
OK,102,40,1037,102,2014-10-01T13:55:00,2,28136590,201961
OK,115,35,1037,115,2014-10-01T14:00:00,4,28137030,201961
OK,117,35,1037,117,2014-10-01T14:05:00,3,28137479,201961
OK,115,35,1037,115,2014-10-01T14:10:00,1,28137913,201961
OK,122,33,1037,122,2014-10-01T14:15:00,2,28138362,201961
OK,122,33,1037,122,2014-10-01T14:20:00,2,28138790,201961
OK,108,37,1037,108,2014-10-01T14:25:00,4,28139239,201961
OK,110,37,1037,110,2014-10-01T14:30:00,7,28139650,201961
OK,118,34,1037,118,2014-10-01T14:35:00,2,28140099,201961
OK,74,55,1037,74,2014-10-01T14:40:00,0,28140541,201961
OK,114,35,1037,114,2014-10-01T14:45:00,1,28140990,201961
OK,114,35,1037,114,2014-10-01T14:50:00,0,28141416,201961
OK,92,44,1037,92,2014-10-01T14:55:00,2,28141865,201961
OK,84,48,1037,84,2014-10-01T15:00:00,3,28142293,201961
OK,104,39,1037,104,2014-10-01T15:05:00,4,28142742,201961
OK,107,38,1037,107,2014-10-01T15:10:00,5,28143169,201961
OK,94,43,1037,94,2014-10-01T15:15:00,2,28143618,201961
OK,82,50,1037,82,2014-10-01T15:20:00,0,28144066,201961
OK,82,50,1037,82,2014-10-01T15:25:00,0,28144515,201961
OK,100,41,1037,100,2014-10-01T15:30:00,1,28144936,201961
OK,100,41,1037,100,2014-10-01T15:35:00,1,28145350,201961
OK,100,41,1037,100,2014-10-01T15:40:00,0,28145799,201961
OK,116,35,1037,116,2014-10-01T15:45:00,3,28146248,201961
OK,116,35,1037,116,2014-10-01T15:50:00,5,28146697,201961
OK,98,41,1037,98,2014-10-01T15:55:00,2,28147105,201961
OK,120,34,1037,120,2014-10-01T16:00:00,0,28147549,201961
OK,120,34,1037,120,2014-10-01T16:05:00,0,28147998,201961
OK,120,34,1037,120,2014-10-01T16:10:00,0,28148399,201961
OK,117,35,1037,117,2014-10-01T16:20:00,1,28149287,201961
OK,117,35,1037,117,2014-10-01T16:25:00,1,28149736,201961
OK,117,35,1037,117,2014-10-01T16:30:00,0,28150162,201961
OK,129,31,1037,129,2014-10-01T16:35:00,1,28150611,201961
OK,129,31,1037,129,2014-10-01T16:40:00,1,28151029,201961
OK,129,31,1037,129,2014-10-01T16:45:00,0,28151478,201961
OK,129,31,1037,129,2014-10-01T16:50:00,0,28151927,201961
OK,104,39,1037,104,2014-10-01T17:00:00,1,28152376,201961
OK,104,39,1037,104,2014-10-01T17:05:00,0,28152822,201961
OK,104,39,1037,104,2014-10-01T17:10:00,0,28153269,201961
OK,104,39,1037,104,2014-10-01T17:15:00,0,28153718,201961
OK,112,36,1037,112,2014-10-01T17:20:00,3,28154128,201961
OK,112,36,1037,112,2014-10-01T17:25:00,3,28154577,201961
OK,112,36,1037,112,2014-10-01T17:30:00,0,28155019,201961
OK,112,36,1037,112,2014-10-01T17:35:00,0,28155467,201961
OK,103,39,1037,103,2014-10-01T17:40:00,1,28155885,201961
OK,82,50,1037,82,2014-10-01T17:45:00,2,28156334,201961
OK,62,66,1037,62,2014-10-01T17:50:00,1,28156782,201961
OK,65,63,1037,65,2014-10-01T17:55:00,1,28157221,201961
OK,89,46,1037,89,2014-10-01T18:00:00,3,28157651,201961
OK,132,31,1037,132,2014-10-01T18:05:00,1,28158099,201961
OK,114,35,1037,114,2014-10-01T18:10:00,1,28158543,201961
OK,132,31,1037,132,2014-10-01T18:15:00,0,28158989,201961
OK,89,46,1037,89,2014-10-01T18:20:00,2,28159435,201961
OK,106,38,1037,106,2014-10-01T18:25:00,0,28159770,201961
OK,106,38,1037,106,2014-10-01T18:35:00,0,28160668,201961
OK,106,38,1037,106,2014-10-01T18:40:00,0,28161106,201961
OK,106,38,1037,106,2014-10-01T18:45:00,0,28161555,201961
OK,106,38,1037,106,2014-10-01T18:50:00,0,28161972,201961
OK,106,38,1037,106,2014-10-01T18:55:00,0,28162421,201961
OK,106,38,1037,106,2014-10-01T19:00:00,0,28162815,201961
OK,65,63,1037,65,2014-10-01T19:05:00,1,28163254,201961
OK,65,63,1037,65,2014-10-01T19:10:00,1,28163702,201961
OK,89,46,1037,89,2014-10-01T19:15:00,1,28164151,201961
OK,97,42,1037,97,2014-10-01T19:20:00,2,28164582,201961
OK,105,39,1037,105,2014-10-01T19:25:00,0,28165031,201961
OK,105,39,1037,105,2014-10-01T19:30:00,0,28165456,201961
OK,105,39,1037,105,2014-10-01T19:35:00,0,28165904,201961
OK,105,39,1037,105,2014-10-01T19:40:00,0,28166345,201961
OK,105,39,1037,105,2014-10-01T19:45:00,0,28166707,201961
OK,105,39,1037,105,2014-10-01T19:50:00,0,28167156,201961
OK,105,39,1037,105,2014-10-01T19:55:00,0,28167585,201961
OK,105,39,1037,105,2014-10-01T20:00:00,0,28168018,201961
OK,86,47,1037,86,2014-10-01T20:05:00,1,28168467,201961
OK,86,47,1037,86,2014-10-01T20:10:00,1,28168912,201961
OK,86,47,1037,86,2014-10-01T20:15:00,0,28169361,201961
OK,86,47,1037,86,2014-10-01T20:20:00,0,28169809,201961
OK,105,39,1037,105,2014-10-01T20:25:00,1,28170235,201961
OK,105,39,1037,105,2014-10-01T20:30:00,0,28170680,201961
OK,105,39,1037,105,2014-10-01T20:35:00,0,28171128,201961
OK,105,39,1037,105,2014-10-01T20:40:00,0,28171565,201961
OK,105,39,1037,105,2014-10-01T20:45:00,0,28172011,201961
OK,105,39,1037,105,2014-10-01T20:50:00,0,28172459,201961
OK,105,39,1037,105,2014-10-01T20:55:00,0,28172905,201961
OK,105,39,1037,105,2014-10-01T21:00:00,0,28173351,201961
OK,105,39,1037,105,2014-10-01T21:05:00,0,28173800,201961
OK,105,39,1037,105,2014-10-01T21:10:00,0,28174241,201961
OK,105,39,1037,105,2014-10-01T21:15:00,0,28174690,201961
OK,79,51,1037,79,2014-10-01T21:20:00,1,28175116,201961
OK,104,39,1037,104,2014-10-01T21:25:00,1,28175512,201961
OK,104,39,1037,104,2014-10-01T21:30:00,0,28175961,201961
OK,104,39,1037,104,2014-10-01T21:35:00,0,28176410,201961
OK,104,39,1037,104,2014-10-01T21:40:00,0,28176859,201961
OK,70,58,1037,70,2014-10-01T21:45:00,1,28177215,201961
OK,70,58,1037,70,2014-10-01T21:50:00,0,28177655,201961
OK,70,58,1037,70,2014-10-01T21:55:00,0,28178101,201961
OK,70,58,1037,70,2014-10-01T22:00:00,0,28178550,201961
OK,70,58,1037,70,2014-10-01T22:05:00,0,28178997,201961
OK,70,58,1037,70,2014-10-01T22:10:00,0,28179431,201961
OK,70,58,1037,70,2014-10-01T22:15:00,0,28179874,201961
OK,70,58,1037,70,2014-10-01T22:20:00,0,28180321,201961
OK,70,58,1037,70,2014-10-01T22:25:00,0,28180719,201961
OK,70,58,1037,70,2014-10-01T22:30:00,0,28181168,201961
OK,70,58,1037,70,2014-10-01T22:35:00,0,28181592,201961
OK,70,58,1037,70,2014-10-01T22:40:00,0,28182040,201961
OK,61,67,1037,61,2014-10-01T22:45:00,1,28182487,201961
OK,61,67,1037,61,2014-10-01T22:50:00,1,28182936,201961
OK,61,67,1037,61,2014-10-01T22:55:00,0,28183353,201961
OK,61,67,1037,61,2014-10-01T23:00:00,0,28183786,201961
OK,61,67,1037,61,2014-10-01T23:05:00,0,28184231,201961
OK,61,67,1037,61,2014-10-01T23:10:00,0,28184680,201961
OK,61,67,1037,61,2014-10-01T23:15:00,0,28185115,201961
OK,61,67,1037,61,2014-10-01T23:20:00,0,28185563,201961
OK,61,67,1037,61,2014-10-01T23:25:00,0,28185994,201961
OK,61,67,1037,61,2014-10-01T23:30:00,0,28186386,201961
OK,61,67,1037,61,2014-10-01T23:40:00,0,28187233,201961
OK,61,67,1037,61,2014-10-01T23:55:00,0,28188565,201961
OK,89,46,1037,89,2014-10-02T00:05:00,0,28189450,201961
OK,89,46,1037,89,2014-10-02T00:10:00,0,28189872,201961
OK,89,46,1037,89,2014-10-02T00:15:00,0,28190321,201961
OK,89,46,1037,89,2014-10-02T00:20:00,0,28190674,201961
OK,89,46,1037,89,2014-10-02T00:30:00,0,28191572,201961
OK,89,46,1037,89,2014-10-02T00:35:00,0,28191878,201961
OK,89,46,1037,89,2014-10-02T00:45:00,0,28192760,201961
OK,89,46,1037,89,2014-10-02T00:50:00,0,28193204,201961
OK,89,46,1037,89,2014-10-02T00:55:00,0,28193571,201961
OK,89,46,1037,89,2014-10-02T01:05:00,0,28194469,201961
OK,89,46,1037,89,2014-10-02T01:10:00,0,28194918,201961
OK,89,46,1037,89,2014-10-02T01:15:00,0,28195154,201961
OK,89,46,1037,89,2014-10-02T01:25:00,0,28196052,201961
OK,89,46,1037,89,2014-10-02T01:30:00,0,28196336,201961
OK,89,46,1037,89,2014-10-02T01:35:00,0,28196785,201961
OK,89,46,1037,89,2014-10-02T01:40:00,0,28197208,201961
OK,117,35,1037,117,2014-10-02T01:45:00,1,28197657,201961
OK,117,35,1037,117,2014-10-02T01:50:00,0,28198105,201961
OK,117,35,1037,117,2014-10-02T01:55:00,0,28198553,201961
OK,117,35,1037,117,2014-10-02T02:00:00,0,28199002,201961
OK,117,35,1037,117,2014-10-02T02:05:00,0,28199374,201961
OK,117,35,1037,117,2014-10-02T02:10:00,0,28199816,201961
OK,117,35,1037,117,2014-10-02T02:15:00,0,28200258,201961
OK,117,35,1037,117,2014-10-02T02:20:00,0,28200701,201961
OK,117,35,1037,117,2014-10-02T02:25:00,0,28201150,201961
OK,117,35,1037,117,2014-10-02T02:30:00,0,28201581,201961
OK,117,35,1037,117,2014-10-02T02:45:00,0,28202479,201961
OK,117,35,1037,117,2014-10-02T02:50:00,0,28202921,201961
OK,117,35,1037,117,2014-10-02T02:55:00,0,28203369,201961
OK,117,35,1037,117,2014-10-02T03:00:00,0,28203804,201961
OK,117,35,1037,117,2014-10-02T03:10:00,0,28204253,201961
OK,117,35,1037,117,2014-10-02T03:25:00,0,28204702,201961
OK,117,35,1037,117,2014-10-02T03:30:00,0,28205151,201961
OK,117,35,1037,117,2014-10-02T03:35:00,0,28205579,201961
OK,117,35,1037,117,2014-10-02T03:40:00,0,28206026,201961
OK,117,35,1037,117,2014-10-02T03:45:00,0,28206409,201961
OK,117,35,1037,117,2014-10-02T03:55:00,0,28207307,201961
OK,117,35,1037,117,2014-10-02T04:00:00,0,28207726,201961
OK,117,35,1037,117,2014-10-02T04:05:00,0,28208175,201961
OK,117,35,1037,117,2014-10-02T04:10:00,0,28208602,201961
OK,117,35,1037,117,2014-10-02T04:15:00,0,28209051,201961
OK,74,55,1037,74,2014-10-02T04:20:00,1,28209489,201961
OK,74,55,1037,74,2014-10-02T04:25:00,0,28209938,201961
OK,74,55,1037,74,2014-10-02T04:30:00,0,28210361,201961
OK,74,55,1037,74,2014-10-02T04:35:00,0,28210810,201961
OK,74,55,1037,74,2014-10-02T04:40:00,0,28211235,201961
OK,74,55,1037,74,2014-10-02T04:45:00,0,28211679,201961
OK,74,55,1037,74,2014-10-02T04:50:00,0,28212057,201961
OK,74,55,1037,74,2014-10-02T05:00:00,0,28212935,201961
OK,125,32,1037,125,2014-10-02T05:05:00,1,28213384,201961
OK,125,32,1037,125,2014-10-02T05:10:00,0,28213822,201961
OK,121,33,1037,121,2014-10-02T05:15:00,2,28214271,201961
OK,121,33,1037,121,2014-10-02T05:20:00,0,28214684,201961
OK,106,38,1037,106,2014-10-02T05:25:00,2,28215133,201961
OK,104,39,1037,104,2014-10-02T05:30:00,0,28215549,201961
OK,104,39,1037,104,2014-10-02T05:35:00,0,28215998,201961
OK,148,27,1037,148,2014-10-02T05:40:00,1,28216337,201961
OK,148,27,1037,148,2014-10-02T05:45:00,1,28216777,201961
OK,148,27,1037,148,2014-10-02T05:50:00,0,28217224,201961
OK,148,27,1037,148,2014-10-02T05:55:00,0,28217673,201961
OK,143,28,1037,143,2014-10-02T06:00:00,2,28218112,201961
OK,112,36,1037,112,2014-10-02T06:05:00,3,28218561,201961
OK,107,38,1037,107,2014-10-02T06:10:00,0,28218981,201961
OK,107,38,1037,107,2014-10-02T06:15:00,0,28219430,201961
OK,155,26,1037,155,2014-10-02T06:20:00,2,28219803,201961
OK,139,29,1037,139,2014-10-02T06:30:00,3,28220686,201961
OK,150,27,1037,150,2014-10-02T06:35:00,5,28221135,201961
OK,149,27,1037,149,2014-10-02T06:40:00,4,28221516,201961
OK,135,30,1037,135,2014-10-02T06:45:00,2,28221802,201961
OK,107,38,1037,107,2014-10-02T07:00:00,2,28222396,201961
OK,100,41,1037,100,2014-10-02T07:10:00,1,28223276,201961
OK,100,41,1037,100,2014-10-02T07:15:00,0,28223711,201961
OK,100,41,1037,100,2014-10-02T07:20:00,0,28224159,201961
OK,121,33,1037,121,2014-10-02T07:25:00,1,28224514,201961
OK,67,61,1037,67,2014-10-02T07:35:00,1,28225412,201961
OK,67,61,1037,67,2014-10-02T07:40:00,1,28225734,201961
OK,122,33,1037,122,2014-10-02T07:50:00,2,28226624,201961
OK,153,26,1037,153,2014-10-02T07:55:00,1,28227073,201961
OK,153,26,1037,153,2014-10-02T08:00:00,0,28227488,201961
OK,121,33,1037,121,2014-10-02T08:05:00,1,28227937,201961
OK,121,33,1037,121,2014-10-02T08:10:00,1,28228296,201961
OK,107,38,1037,107,2014-10-02T08:20:00,0,28229155,201961
OK,108,37,1037,108,2014-10-02T08:25:00,4,28229604,201961
OK,123,33,1037,123,2014-10-02T08:30:00,2,28229954,201961
OK,123,33,1037,123,2014-10-02T08:40:00,0,28230769,201961
OK,123,33,1037,123,2014-10-02T08:45:00,0,28231217,201961
OK,107,38,1037,107,2014-10-02T08:50:00,3,28231641,201961
OK,95,43,1037,95,2014-10-02T08:55:00,1,28232090,201961
OK,89,46,1037,89,2014-10-02T09:00:00,1,28232432,201961
OK,89,46,1037,89,2014-10-02T09:10:00,0,28232881,201961
OK,173,23,1037,173,2014-10-02T09:15:00,1,28233330,201961
OK,173,23,1037,173,2014-10-02T09:20:00,0,28233754,201961
OK,84,48,1037,84,2014-10-02T09:25:00,2,28234203,201961
OK,84,48,1037,84,2014-10-02T09:30:00,0,28234536,201961
OK,86,47,1037,86,2014-10-02T09:40:00,1,28235412,201961
OK,86,47,1037,86,2014-10-02T09:45:00,0,28235861,201961
OK,86,47,1037,86,2014-10-02T09:50:00,0,28236304,201961
OK,179,22,1037,179,2014-10-02T09:55:00,1,28236751,201961
OK,179,22,1037,179,2014-10-02T10:00:00,0,28237154,201961
OK,179,22,1037,179,2014-10-02T10:05:00,0,28237601,201961
OK,179,22,1037,179,2014-10-02T10:10:00,0,28238050,201961
OK,179,22,1037,179,2014-10-02T10:15:00,0,28238497,201961
OK,85,48,1037,85,2014-10-02T10:20:00,2,28238938,201961
OK,85,48,1037,85,2014-10-02T10:25:00,2,28239387,201961
OK,100,41,1037,100,2014-10-02T10:30:00,0,28239817,201961
OK,116,35,1037,116,2014-10-02T10:35:00,1,28240266,201961
OK,131,31,1037,131,2014-10-02T10:40:00,3,28240710,201961
OK,101,40,1037,101,2014-10-02T10:45:00,2,28241159,201961
OK,101,40,1037,101,2014-10-02T10:50:00,2,28241591,201961
OK,152,26,1037,152,2014-10-02T10:55:00,1,28242039,201961
OK,152,26,1037,152,2014-10-02T11:00:00,0,28242435,201961
OK,152,26,1037,152,2014-10-02T11:05:00,0,28242884,201961
OK,129,31,1037,129,2014-10-02T11:10:00,1,28243333,201961
OK,129,31,1037,129,2014-10-02T11:15:00,1,28243658,201961
OK,127,32,1037,127,2014-10-02T11:20:00,2,28244096,201961
OK,121,33,1037,121,2014-10-02T11:25:00,1,28244525,201961
OK,121,33,1037,121,2014-10-02T11:30:00,0,28244974,201961
OK,86,47,1037,86,2014-10-02T11:35:00,2,28245423,201961
OK,102,40,1037,102,2014-10-02T11:40:00,1,28245829,201961
OK,102,40,1037,102,2014-10-02T11:45:00,0,28246278,201961
OK,100,41,1037,100,2014-10-02T11:50:00,2,28246715,201961
OK,85,48,1037,85,2014-10-02T11:55:00,0,28247164,201961
OK,85,48,1037,85,2014-10-02T12:00:00,0,28247610,201961
OK,85,48,1037,85,2014-10-02T12:05:00,0,28248040,201961
OK,85,48,1037,85,2014-10-02T12:10:00,0,28248489,201961
OK,109,37,1037,109,2014-10-02T12:15:00,1,28248936,201961
OK,109,37,1037,109,2014-10-02T12:20:00,0,28249364,201961
OK,100,41,1037,100,2014-10-02T12:25:00,5,28249808,201961
OK,100,41,1037,100,2014-10-02T12:30:00,0,28250227,201961
OK,136,30,1037,136,2014-10-02T12:35:00,1,28250625,201961
OK,136,30,1037,136,2014-10-02T13:20:00,0,28251950,201961
OK,121,33,1037,121,2014-10-02T13:30:00,2,28252534,201961
OK,128,32,1037,128,2014-10-02T13:35:00,1,28252976,201961
OK,128,32,1037,128,2014-10-02T13:40:00,0,28253393,201961
OK,177,23,1037,177,2014-10-02T13:50:00,1,28254247,201961
OK,100,41,1037,100,2014-10-02T13:55:00,3,28254568,201961
OK,145,28,1037,145,2014-10-02T14:10:00,2,28255145,201961
OK,110,37,1037,110,2014-10-02T14:15:00,4,28255594,201961
OK,129,31,1037,129,2014-10-02T14:20:00,3,28256022,201961
OK,129,31,1037,129,2014-10-02T14:25:00,1,28256471,201961
OK,125,32,1037,125,2014-10-02T14:30:00,2,28256899,201961
OK,131,31,1037,131,2014-10-02T14:35:00,3,28257348,201961
OK,139,29,1037,139,2014-10-02T14:40:00,1,28257789,201961
OK,125,32,1037,125,2014-10-02T14:45:00,3,28258237,201961
OK,125,32,1037,125,2014-10-02T14:50:00,3,28258670,201961
OK,103,39,1037,103,2014-10-02T14:55:00,1,28259116,201961
OK,103,39,1037,103,2014-10-02T15:00:00,0,28259565,201961
OK,103,39,1037,103,2014-10-02T15:05:00,0,28260012,201961
OK,130,31,1037,130,2014-10-02T15:10:00,3,28260445,201961
OK,110,37,1037,110,2014-10-02T15:15:00,2,28260894,201961
OK,130,31,1037,130,2014-10-02T15:20:00,0,28261334,201961
OK,72,56,1037,72,2014-10-02T15:25:00,1,28261716,201961
OK,127,32,1037,127,2014-10-02T15:40:00,1,28263039,201961
OK,118,34,1037,118,2014-10-02T15:45:00,3,28263477,201961
OK,132,31,1037,132,2014-10-02T15:50:00,2,28263918,201961
OK,132,31,1037,132,2014-10-02T15:55:00,0,28264320,201961
OK,102,40,1037,102,2014-10-02T16:00:00,4,28264769,201961
OK,117,35,1037,117,2014-10-02T16:05:00,3,28265207,201961
OK,78,52,1037,78,2014-10-02T16:10:00,1,28265647,201961
OK,78,52,1037,78,2014-10-02T16:15:00,0,28266043,201961
OK,111,36,1037,111,2014-10-02T16:20:00,1,28266492,201961
OK,111,36,1037,111,2014-10-02T16:25:00,3,28266941,201961
OK,112,36,1037,112,2014-10-02T16:30:00,4,28267264,201961
OK,116,35,1037,116,2014-10-02T16:40:00,0,28268162,201961
OK,116,35,1037,116,2014-10-02T16:45:00,0,28268604,201961